Theta_e
304 305 305 305 305 305 306 306 306 306 306 307 307 307 308 308 308 309 309 308 309 308 308 308 308 308 308 307 307 308 308 308 309 308 308 308 308 308 309 309 307 306 305 304 304 304 303 302 302 302 303 302 301 301 300 299 298 297 297 296 295 296 295 294 292 293 297 298 296 292 290 289 287 288 287 287 286 286 286 286 286 287 288 289 291
302 303 303 304 303 304 304 304 304 304 304 305 305 305 306 306 307 306 305 306 307 306 307 307 307 307 307 307 307 307 307 307 308 308 307 307 306 307 307 307 307 306 303 300 301 301 300 299 299 300 299 298 298 298 299 298 297 296 296 295 295 295 296 294 293 292 292 294 290 290 287 287 286 287 285 285 285 285 284 285 285 286 286 288 289
300 301 302 303 302 302 302 302 302 301 301 303 303 303 303 304 304 303 304 305 305 305 305 306 305 305 305 305 305 306 306 306 307 306 306 306 305 305 305 304 303 302 300 299 299 300 299 298 298 299 301 298 298 299 299 298 297 296 296 296 295 295 296 295 293 291 291 293 296 292 286 285 285 286 285 286 285 285 284 284 284 285 286 287 287
300 301 301 302 301 301 301 300 299 300 300 301 301 301 301 301 300 301 301 302 302 303 303 303 303 302 301 301 302 303 303 303 303 304 304 304 303 302 302 301 301 301 300 300 299 299 298 298 298 299 299 298 298 298 298 298 297 296 296 296 295 295 295 295 294 292 292 291 294 293 292 285 285 286 285 285 284 283 283 284 284 283 284 285 286
300 301 301 302 302 301 300 300 300 300 300 300 300 300 300 300 300 299 299 300 301 301 300 300 299 299 299 299 300 300 300 301 302 302 302 303 302 302 301 301 300 300 300 300 296 299 298 298 298 298 297 296 296 296 296 295 295 295 294 294 294 294 294 293 293 293 291 290 292 292 290 286 285 285 284 282 283 283 283 282 282 282 283 284 284
299 300 300 301 300 300 299 299 299 298 298 299 299 299 299 299 299 299 299 299 299 300 299 298 298 297 297 298 298 299 300 300 300 301 301 301 301 300 300 300 300 300 299 299 299 299 299 299 299 298 297 296 296 296 296 295 295 295 294 293 293 293 292 292 292 291 291 290 290 291 287 286 285 284 284 283 281 280 280 281 282 282 282 281 283
298 298 298 298 298 298 298 297 297 298 298 298 298 298 298 298 297 297 298 297 297 298 299 298 298 297 297 297 298 298 298 299 299 300 300 300 300 299 298 298 298 298 298 298 299 299 299 299 299 298 297 297 296 296 296 295 295 294 294 294 294 293 292 292 292 291 290 290 290 290 290 288 286 284 283 283 282 281 279 279 279 281 281 280 280
297 297 297 297 297 297 297 296 296 296 296 297 297 297 297 297 297 297 296 296 296 297 297 298 298 298 297 297 298 298 298 298 298 298 299 299 298 297 298 297 296 296 297 297 298 298 298 298 298 299 299 298 297 297 296 296 296 294 295 295 294 292 292 291 291 290 289 289 289 289 289 289 286 285 283 282 280 280 280 280 278 278 279 280 280
296 296 296 296 295 295 295 295 295 295 295 295 295 295 296 296 295 295 295 295 296 296 296 296 296 296 297 297 297 297 296 296 297 297 297 298 298 297 297 297 296 296 296 296 296 297 297 297 298 299 298 293 293 294 295 295 296 295 294 294 292 292 291 291 290 289 289 288 288 289 288 288 287 283 280 279 278 279 281 280 279 280 279 278 279
295 295 295 294 294 294 294 294 294 294 294 294 294 294 294 294 294 294 294 294 295 295 295 295 295 295 295 296 296 296 296 296 292 291 293 295 297 297 297 296 296 296 295 295 295 296 296 296 296 291 291 290 290 291 292 293 293 295 296 295 292 291 290 290 290 289 289 287 287 288 287 286 287 284 282 281 281 282 281 280 278 279 278 278 278
294 294 293 293 293 293 293 293 293 293 293 293 293 292 292 292 291 292 292 293 293 293 293 294 294 295 295 295 295 295 295 295 291 293 293 293 294 295 295 295 296 295 295 294 294 295 296 296 296 294 291 290 291 290 291 292 292 292 292 292 293 292 290 289 289 289 289 288 288 288 287 287 288 287 284 283 282 281 281 281 279 279 277 276 274
293 293 293 293 293 292 292 292 292 292 291 291 291 289 289 289 290 290 290 291 292 292 292 293 293 294 294 294 294 295 295 292 292 293 293 293 292 294 295 294 295 295 294 294 294 294 295 295 295 295 295 295 295 294 292 290 291 291 291 292 292 292 293 291 290 289 289 288 288 288 288 288 288 288 285 283 282 282 281 281 280 279 278 277 277
293 292 292 292 292 292 291 291 291 291 291 289 289 289 289 289 289 289 289 289 290 291 289 292 292 293 293 293 293 294 294 292 292 292 292 292 293 292 294 294 294 294 294 294 294 294 294 294 294 294 295 290 290 293 294 293 290 290 290 290 290 291 292 293 293 291 291 289 288 288 289 289 289 289 288 285 285 282 281 280 279 279 279 278 278
292 291 291 291 291 291 290 289 289 290 289 289 289 289 289 289 289 290 290 289 289 290 290 290 290 291 292 292 292 293 293 291 292 292 291 292 292 292 294 294 294 294 294 294 294 294 294 294 293 293 294 294 293 292 292 292 293 292 291 291 291 290 290 291 291 291 290 291 290 288 290 291 290 290 290 287 284 281 280 279 280 279 279 279 280
291 290 290 290 290 289 289 289 289 289 289 288 288 288 288 288 288 289 289 289 289 289 290 289 289 288 289 290 290 291 292 291 291 291 291 291 292 292 293 293 293 293 294 294 294 294 294 294 294 293 293 293 294 293 292 292 290 290 289 289 289 290 291 291 291 291 291 291 291 291 291 292 291 290 289 287 285 284 283 282 281 281 281 282 282
289 289 289 289 289 289 288 288 287 287 287 287 287 287 287 287 287 288 288 289 289 289 289 289 288 288 289 288 289 289 290 290 290 290 291 291 292 291 291 291 291 291 291 293 293 294 294 293 293 293 293 293 292 291 291 291 290 288 288 288 288 289 290 290 291 291 291 291 291 291 290 291 291 290 288 287 286 285 285 284 284 282 280 279 278
288 288 288 288 287 288 287 287 286 286 286 286 286 286 286 286 287 288 287 287 288 288 288 288 288 288 287 287 287 288 289 289 290 290 290 291 291 290 290 290 290 290 290 291 292 293 293 293 293 292 292 293 292 292 292 290 289 288 288 287 288 288 288 289 290 291 291 291 292 292 292 293 293 293 293 291 286 286 283 282 280 281 278 277 278
287 287 287 287 287 287 287 286 285 285 285 285 285 285 286 286 287 287 286 286 286 287 287 288 288 288 287 287 287 287 287 288 288 289 289 290 289 288 289 289 289 289 289 290 291 291 292 288 289 292 292 292 291 292 292 291 289 288 287 287 286 287 287 289 288 288 289 290 290 290 291 291 292 292 292 290 288 286 283 280 281 280 278 278 277
285 285 286 286 286 286 286 285 285 284 284 284 285 284 285 285 286 286 286 286 286 287 287 287 287 287 287 286 286 286 286 286 287 288 288 289 289 288 289 289 288 288 289 289 290 291 291 289 288 289 290 291 291 292 292 290 289 288 288 287 286 286 287 288 287 287 286 286 286 287 287 288 289 289 288 289 288 286 285 284 283 280 278 278 279
285 285 285 285 285 285 285 284 284 283 283 284 284 284 285 285 285 285 285 286 286 287 286 286 285 286 286 286 286 286 286 286 287 288 288 288 289 288 289 288 288 288 288 289 289 289 290 290 291 290 291 291 291 291 291 291 289 288 288 287 286 286 288 288 287 287 286 286 286 286 286 287 287 287 287 287 287 285 285 285 284 282 280 279 280
284 284 284 284 283 283 283 283 282 283 283 283 284 283 284 284 284 284 284 285 285 285 284 284 284 285 286 286 287 286 286 286 286 287 287 288 288 288 288 287 287 288 288 288 288 288 289 290 291 291 291 291 291 290 291 291 290 289 288 287 287 288 289 288 287 286 286 286 286 286 286 286 286 286 286 286 286 285 285 285 285 284 281 280 280
282 282 282 282 282 281 281 281 282 282 282 283 282 282 283 283 283 283 284 284 282 282 282 283 285 285 286 286 286 286 287 285 286 286 287 287 288 288 287 287 288 287 287 287 287 288 288 290 290 290 290 290 290 290 290 290 290 289 289 290 290 290 288 288 288 287 286 286 285 285 285 285 285 285 285 285 285 285 285 284 284 284 284 283 282
280 280 280 279 279 279 279 279 279 281 281 281 281 281 282 282 282 283 282 282 282 282 283 284 284 285 286 287 288 288 288 287 286 286 286 287 287 288 288 288 288 287 287 286 286 287 289 289 289 288 288 289 289 290 290 290 289 289 290 290 290 290 288 288 287 286 285 285 284 283 283 284 283 284 284 284 285 285 285 284 284 284 283 284 285
278 278 277 277 277 277 277 278 279 279 280 280 280 280 281 282 282 283 283 283 283 283 284 285 285 285 285 286 287 288 288 289 287 286 286 286 287 287 288 288 288 287 287 287 287 288 288 288 288 288 288 288 288 289 289 289 288 289 290 290 289 288 288 287 286 286 285 283 283 282 282 283 283 283 284 284 285 285 284 284 284 284 283 284 285
276 275 274 275 275 275 276 277 278 278 278 279 279 280 280 281 281 282 283 283 283 283 284 284 284 285 285 285 286 287 288 288 288 288 286 285 286 287 287 287 288 288 287 287 288 288 288 288 288 287 287 288 288 288 288 288 288 289 289 288 287 288 287 287 286 285 283 282 282 282 282 283 283 284 284 285 285 284 283 283 283 283 284 284 284
273 273 273 273 273 274 274 275 276 277 277 278 278 279 279 280 280 281 282 282 283 283 283 284 284 284 284 285 286 286 287 287 287 288 287 286 285 286 286 286 285 285 285 286 285 286 286 286 286 286 286 286 287 286 287 287 287 287 287 286 287 287 287 286 285 284 283 283 282 282 282 283 283 284 284 284 283 282 282 281 281 280 281 280 279
271 271 271 272 273 273 273 274 274 275 276 276 277 278 279 279 279 280 281 281 282 282 282 283 283 284 284 284 285 285 286 286 287 287 288 288 287 286 286 285 285 284 285 285 285 285 285 285 286 286 286 285 286 285 286 286 286 286 287 286 287 287 286 286 285 284 284 283 283 283 283 283 284 283 282 282 282 282 282 281 280 279 279 279 279
270 270 270 271 272 272 272 273 273 273 274 275 275 276 277 278 278 279 279 279 279 280 281 281 282 282 283 283 283 284 284 285 285 286 286 287 286 286 286 286 286 286 286 286 285 285 285 285 285 285 285 285 285 286 286 286 286 286 286 286 286 286 286 286 285 285 285 284 284 283 283 283 282 282 282 281 281 281 281 280 279 278 279 278 277
268 269 269 270 270 271 272 272 272 272 273 273 274 275 276 276 277 277 279 280 280 280 280 280 281 282 283 283 282 282 283 283 285 286 286 286 285 285 285 285 286 286 286 286 286 286 286 285 285 284 284 284 284 284 285 285 285 286 285 285 285 285 285 285 284 284 284 283 282 282 282 282 282 282 281 280 280 280 281 280 280 278 278 278 277
267 268 268 269 269 269 270 271 271 272 272 272 273 274 276 277 277 277 277 280 281 281 282 281 281 282 282 283 284 282 282 284 286 286 286 286 286 286 286 286 286 286 286 287 286 284 284 284 284 284 284 284 283 283 284 284 284 284 284 284 284 284 284 284 284 284 284 283 283 282 281 282 281 280 280 279 279 280 281 280 279 279 277 276 277
266 267 267 267 267 267 269 269 270 270 271 272 272 272 273 274 277 278 278 279 279 280 281 282 282 283 282 282 283 285 285 285 285 285 286 286 286 286 286 286 286 286 286 285 284 284 283 283 283 284 284 284 283 283 283 283 283 283 283 284 284 283 283 283 284 284 283 283 283 282 282 281 281 281 280 279 279 279 279 280 279 279 277 276 276
263 264 265 265 266 267 268 268 269 269 270 270 270 271 271 271 272 276 277 277 278 279 280 280 281 282 283 283 282 282 284 284 285 284 284 284 284 284 285 285 286 286 286 286 283 283 283 283 283 283 283 283 283 283 283 283 284 283 283 282 282 283 283 282 284 284 283 283 282 282 281 281 281 280 280 279 279 279 278 278 278 278 277 277 277
261 262 263 264 265 266 266 267 267 268 268 268 268 269 269 270 269 270 273 276 277 278 279 280 281 282 282 283 283 283 283 283 283 283 283 283 283 284 284 285 285 286 286 283 282 282 283 283 283 283 283 283 283 283 283 283 283 283 283 282 282 282 283 283 284 283 283 283 283 282 282 281 281 281 280 279 279 278 278 277 278 278 277 276 277
260 262 263 263 264 265 265 266 266 266 267 268 268 268 269 269 269 270 270 271 273 276 278 279 280 280 281 282 282 282 282 282 282 282 282 283 283 284 284 284 285 286 285 282 282 282 283 283 283 283 283 283 283 283 283 283 283 283 282 282 282 283 283 283 283 283 283 283 282 282 282 281 281 280 279 279 279 279 278 277 278 277 277 276 276
261 262 262 263 264 264 265 266 266 266 266 266 267 267 268 269 269 270 270 270 270 271 272 274 277 279 279 280 281 281 281 282 282 282 282 282 282 283 283 281 281 282 283 283 283 282 282 283 283 283 283 283 283 283 283 283 283 283 282 282 282 282 282 282 282 283 283 283 282 282 282 281 281 280 279 278 278 278 277 277 277 277 277 277 277
260 262 262 263 263 264 264 264 265 265 265 266 266 267 268 268 268 269 270 270 270 271 271 273 274 276 278 278 280 280 280 281 281 281 281 281 282 282 279 279 280 280 281 282 282 282 283 283 283 283 283 283 283 283 283 283 283 283 283 282 282 282 282 282 282 282 283 283 282 282 282 281 281 280 280 279 278 278 278 277 277 277 277 277 277
261 261 262 262 262 263 263 263 263 264 265 265 266 266 267 267 268 268 268 268 269 270 270 271 272 272 274 276 278 279 279 279 279 279 280 280 282 281 280 280 280 280 280 281 281 282 282 282 283 283 283 282 283 283 283 283 283 283 283 283 282 282 282 282 282 282 282 282 282 282 282 281 281 281 280 279 278 278 278 278 277 277 277 277 277
260 260 261 261 261 262 262 263 263 264 264 265 265 265 265 266 266 267 267 267 267 268 268 269 270 270 270 272 276 276 276 277 278 278 278 279 279 279 279 280 280 280 280 281 281 281 281 282 282 282 282 283 282 283 283 283 283 283 282 282 282 282 282 282 282 282 282 282 282 282 282 281 281 281 280 279 279 278 278 278 277 276 276 276 277
260 260 261 261 262 262 263 263 263 263 263 264 264 265 265 265 265 265 266 266 267 267 268 269 269 270 271 273 273 274 274 273 273 273 274 276 277 278 278 279 279 280 280 280 281 281 281 281 282 282 282 282 282 282 282 282 282 282 282 282 281 281 281 281 281 282 282 282 282 282 282 281 281 281 281 280 279 279 278 278 277 277 276 276 276
260 260 261 261 261 262 262 263 263 263 263 264 264 264 264 265 265 265 266 266 267 267 268 268 269 270 271 272 272 272 271 271 272 273 273 274 275 277 278 278 279 279 279 280 280 281 281 281 282 282 282 282 282 282 282 282 282 282 282 281 281 281 281 281 281 281 281 282 282 282 282 282 281 281 281 280 280 280 279 278 277 277 277 276 276
260 260 260 261 261 262 262 262 263 263 263 263 264 264 264 265 266 266 266 266 267 267 268 268 268 270 271 271 272 272 270 270 271 272 273 274 275 276 277 278 278 279 280 280 280 281 281 281 282 282 282 282 282 282 282 282 282 282 281 281 281 281 281 281 281 281 282 282 282 282 282 282 281 281 280 280 281 280 279 279 278 277 277 276 276
260 260 261 261 262 261 261 262 262 263 263 263 264 264 264 265 265 265 265 266 266 266 266 267 268 268 270 270 270 270 269 270 271 272 272 273 274 275 276 277 278 278 279 279 280 280 281 281 281 282 281 281 281 281 281 281 281 281 281 280 280 280 280 281 281 281 281 281 281 281 282 281 281 281 281 281 280 280 279 278 277 277 277 276 276
260 260 260 261 261 261 261 262 262 262 263 263 263 264 264 264 264 264 264 265 265 265 265 265 266 266 267 268 268 268 268 268 269 269 269 270 271 271 271 272 272 272 273 275 276 277 279 280 281 281 281 280 280 280 280 280 280 280 280 280 280 280 280 280 280 280 280 280 280 280 280 280 280 280 280 279 279 279 278 277 276 276 275 275 274
260 260 260 260 261 261 262 262 262 262 262 262 263 263 263 263 263 263 263 263 264 264 264 264 265 265 265 265 266 266 265 266 266 266 266 267 267 267 268 268 268 269 269 269 270 272 274 277 277 277 275 274 274 274 275 276 277 278 278 278 278 277 277 277 278 279 279 279 278 278 278 278 278 278 277 277 277 276 276 275 275 274 274 273 273
259 259 259 260 261 261 261 262 262 262 262 262 262 262 262 262 262 262 262 262 263 263 263 263 264 264 264 264 264 264 264 264 265 265 264 264 264 264 265 265 265 265 266 266 267 268 269 270 271 271 270 270 270 270 270 270 271 272 274 276 276 276 276 276 276 277 277 277 277 276 276 276 276 276 276 276 276 275 274 274 274 272 273 272 272
259 259 259 259 260 260 261 261 261 261 261 261 261 261 261 261 262 262 262 262 262 262 262 263 263 263 263 263 263 263 263 263 263 263 263 263 263 263 263 264 264 264 264 265 265 265 266 267 267 267 267 267 267 268 268 268 269 269 270 270 271 271 273 274 276 276 276 276 276 276 276 275 275 275 274 275 275 274 274 274 273 273 272 272 272
257 258 259 259 259 259 260 260 260 260 260 260 260 260 260 261 261 261 262 262 261 262 262 262 262 261 262 262 262 262 262 262 262 262 262 262 262 262 263 263 263 263 263 264 264 264 264 264 265 265 266 266 266 267 267 268 267 267 268 268 269 270 271 272 273 274 275 275 275 275 275 274 274 273 273 274 273 273 272 272 272 272 272 271 271
257 258 258 259 259 259 259 259 259 259 259 259 260 260 260 260 260 261 261 261 261 261 261 261 261 261 261 261 262 262 262 262 262 262 262 262 262 262 262 262 262 262 262 262 262 262 263 263 263 264 264 264 265 265 266 266 266 266 266 267 267 267 267 268 271 271 272 274 275 275 274 274 273 273 273 273 273 272 271 271 271 271 271 270 270
257 257 258 258 258 258 258 258 258 258 258 259 259 259 259 259 260 260 260 260 260 260 260 260 260 260 260 261 261 261 261 261 261 261 261 261 261 261 261 261 261 261 261 261 261 261 261 262 262 263 263 264 264 265 265 265 265 265 266 266 266 266 267 266 267 268 268 272 272 272 272 272 271 271 271 272 271 271 271 270 270 270 270 270 270
256 257 257 257 257 258 258 258 258 258 258 258 258 258 259 259 259 259 259 259 259 260 260 260 260 260 260 260 260 260 260 260 260 260 260 260 260 260 260 260 260 260 260 260 260 260 260 261 262 262 263 264 264 265 265 265 265 265 265 265 265 265 265 266 265 265 267 270 270 270 270 270 269 269 269 269 269 269 269 268 268 268 268 268 268
255 256 256 256 257 257 257 257 257 257 257 257 257 258 258 258 258 258 259 259 259 259 259 259 259 259 259 259 260 259 259 260 260 260 260 260 260 260 260 259 259 259 260 260 260 260 260 260 261 261 262 263 264 265 265 265 265 265 265 265 265 265 264 264 264 264 264 265 268 269 269 269 269 268 268 268 268 267 267 266 267 267 267 267 266
Wind_Speed
1 1 1 1 2 3 3 3 4 3 4 4 5 5 5 6 6 7 7 8 8 9 9 7 6 7 7 7 8 7 8 9 11 10 11 12 11 11 11 13 13 13 10 11 9 9 10 12 13 14 12 12 10 10 10 10 10 10 10 10 11 11 12 13 16 19 13 8 8 5 6 8 6 9 8 8 8 8 10 11 12 12 12 12 12
0 1 1 1 1 2 2 2 3 3 4 4 5 5 5 5 6 7 7 8 7 8 9 8 8 9 10 11 11 11 12 12 11 10 11 11 11 9 11 13 14 10 8 10 9 9 9 10 11 11 9 11 10 12 11 11 11 11 11 11 12 12 12 12 15 14 19 5 7 3 2 8 8 7 11 10 9 7 10 9 9 13 12 12 12
1 1 0 0 1 0 1 1 1 3 3 4 4 4 4 5 6 6 7 7 7 7 8 8 8 9 9 10 10 10 11 11 10 11 12 12 12 11 11 11 11 9 10 10 10 9 10 11 12 11 9 10 12 12 12 12 11 12 14 11 13 13 12 14 13 15 17 15 10 8 6 6 10 7 9 7 5 7 9 10 12 10 12 13 13
2 1 1 1 1 1 1 0 1 2 3 3 3 3 3 4 4 5 7 6 7 7 7 8 8 8 8 9 9 10 10 10 10 10 12 12 12 12 11 11 10 10 11 11 10 10 11 11 12 11 10 12 12 12 12 12 12 12 13 13 13 14 14 12 14 14 13 14 11 9 7 6 7 4 5 4 7 8 9 8 7 7 8 11 13
3 3 3 3 3 3 4 3 3 3 3 3 4 3 3 3 2 3 4 6 6 6 6 6 7 8 8 9 9 10 10 10 11 12 12 11 12 12 11 11 11 10 10 11 10 11 11 12 11 10 10 12 12 11 9 11 11 11 11 11 11 12 10 11 12 12 14 15 13 7 5 4 3 5 7 8 7 7 7 9 9 10 10 12 10
5 5 5 5 5 6 5 5 5 5 5 5 5 5 4 4 4 3 3 5 5 6 6 6 6 7 8 9 9 9 10 10 11 12 12 12 11 11 11 12 12 12 10 11 11 10 12 11 11 11 11 12 12 11 10 12 11 12 12 11 11 10 11 11 11 12 13 14 12 12 5 7 6 7 8 8 7 7 6 6 5 7 9 12 11
5 5 5 5 5 5 5 5 5 5 5 5 5 5 5 5 4 4 4 4 5 6 6 7 7 7 8 8 9 9 10 10 10 11 11 11 12 12 11 11 11 10 8 9 10 11 12 12 12 12 12 12 12 12 11 11 11 12 13 12 12 11 12 12 11 13 13 13 13 12 10 8 9 6 6 8 6 6 8 6 10 10 10 11 8
5 5 5 4 4 5 5 5 5 5 5 5 5 5 5 5 5 4 4 5 5 6 6 7 7 7 7 8 8 8 9 10 10 10 10 11 10 10 10 10 9 8 10 9 10 12 12 12 13 13 13 12 12 11 10 11 10 12 11 11 11 11 12 10 10 10 11 12 12 12 10 10 6 7 3 6 7 7 8 11 11 10 10 12 13
4 4 3 4 4 4 4 4 4 4 4 4 4 4 4 4 4 4 4 4 4 5 6 7 7 7 8 8 8 8 9 9 8 8 9 10 10 11 11 11 11 9 10 11 11 12 12 12 13 13 14 14 17 15 14 12 11 12 11 9 11 11 11 10 10 9 10 11 11 10 9 10 9 7 7 9 13 14 10 10 9 6 7 7 7
4 4 4 4 3 3 3 4 4 4 4 4 5 4 4 4 4 4 4 4 5 5 5 5 6 7 7 7 8 7 8 8 8 10 11 10 10 10 10 10 10 10 10 10 11 12 13 12 13 16 17 17 17 18 19 19 19 17 13 10 11 10 11 11 11 10 10 10 12 12 9 11 13 10 10 11 7 4 6 10 10 7 6 5 4
4 4 4 3 3 3 3 4 3 4 4 4 5 5 5 3 3 3 4 4 5 4 4 5 5 5 6 7 8 8 8 8 9 10 11 13 11 11 11 11 11 11 10 10 11 11 11 13 12 13 14 15 16 18 18 19 20 21 22 21 15 12 11 12 12 10 11 11 12 11 13 14 14 10 10 9 9 11 10 8 7 6 8 9 11
4 5 4 4 4 4 4 4 4 4 4 5 5 3 3 3 3 2 2 3 3 3 4 5 5 5 5 6 7 7 7 7 10 12 13 13 12 11 10 10 10 11 10 10 10 10 12 12 11 10 10 12 12 13 16 19 21 21 22 22 22 22 20 15 13 11 11 11 12 13 12 14 12 11 10 8 9 10 8 9 9 11 10 10 8
4 5 4 4 4 4 4 4 4 4 5 5 3 3 2 2 3 3 3 3 3 2 3 5 5 5 5 7 7 8 8 8 10 12 13 13 13 12 10 11 11 11 12 12 12 12 11 11 11 10 9 13 13 13 12 13 16 20 21 22 22 23 22 24 22 16 10 12 14 14 14 11 13 13 11 13 11 12 7 8 10 8 9 14 10
5 5 5 6 6 6 6 5 5 6 5 4 4 4 4 4 5 4 4 3 3 4 3 4 3 5 5 6 7 8 8 8 10 12 13 14 13 12 10 11 12 13 14 14 13 13 13 12 11 11 10 11 11 12 12 13 12 12 13 13 13 16 19 23 23 24 20 15 14 16 15 11 14 12 10 10 11 12 10 11 10 11 9 17 18
6 6 6 6 6 7 7 6 7 6 6 5 5 4 5 5 5 5 5 5 5 5 5 5 5 4 4 5 6 8 7 9 11 11 12 13 13 12 11 10 11 13 13 14 15 15 14 13 13 13 11 11 10 11 12 12 11 12 12 12 12 12 12 13 13 13 14 15 16 18 17 13 13 12 8 9 14 14 16 18 18 18 13 7 4
6 6 6 6 6 7 6 6 5 5 5 5 5 5 5 5 6 5 5 4 4 4 4 4 5 6 5 5 6 7 7 9 11 11 13 13 14 9 8 9 10 11 12 14 14 13 13 13 13 14 14 14 14 15 15 11 11 13 14 13 12 11 12 12 13 15 14 14 14 16 15 14 15 13 9 10 10 10 8 6 5 5 4 9 12
6 5 5 6 6 6 6 6 5 5 5 5 5 5 5 5 5 4 5 5 5 5 5 5 5 5 7 6 6 8 7 8 10 11 12 13 10 7 7 8 10 9 10 9 11 12 12 14 12 13 15 16 14 14 16 15 12 15 14 14 13 12 12 8 13 18 20 21 22 23 23 22 21 19 20 18 12 10 8 7 11 11 12 11 10
5 5 5 5 5 5 5 4 5 5 4 5 5 5 5 4 4 4 5 6 6 5 5 6 5 4 6 8 6 8 10 9 11 13 13 13 11 8 7 8 9 9 10 10 9 10 12 14 14 14 14 16 15 15 17 15 13 14 13 14 16 15 13 8 7 10 16 20 22 22 22 22 20 19 18 18 19 15 12 15 12 10 11 11 11
6 6 6 5 5 5 4 4 5 5 5 5 5 6 6 5 5 4 4 5 6 5 5 6 6 5 4 8 9 9 11 12 11 12 13 14 11 7 8 7 9 9 9 10 8 8 10 11 15 16 16 16 19 17 18 14 13 13 13 13 16 17 14 7 9 10 9 9 10 12 14 17 15 13 12 19 22 20 16 15 11 12 12 11 9
6 5 5 5 5 4 4 4 5 6 7 6 6 6 6 6 6 7 6 6 7 7 6 6 8 8 5 8 9 7 8 11 9 11 13 14 15 9 7 8 9 10 8 10 10 9 9 9 13 17 20 20 21 20 19 20 15 13 12 11 13 19 12 9 11 10 9 10 11 10 11 10 10 10 9 12 16 17 16 14 13 13 12 10 10
6 6 6 5 5 6 5 6 8 7 6 7 7 6 6 7 7 7 8 7 7 8 8 7 8 9 6 6 6 9 8 10 12 10 12 15 15 13 8 10 9 9 10 10 10 10 9 9 8 11 14 17 18 19 19 21 20 15 14 14 14 14 11 10 11 12 11 11 11 10 9 9 10 9 9 11 12 12 14 15 13 13 10 10 10
6 7 6 6 7 7 7 8 7 7 7 7 8 8 6 6 6 7 7 7 10 10 9 7 8 9 9 8 8 10 9 12 10 13 13 15 16 17 10 10 9 8 11 11 11 10 10 10 9 10 11 13 15 17 21 21 22 15 16 20 20 20 15 12 10 8 8 9 8 11 11 9 9 9 9 9 11 13 13 13 13 12 11 9 11
7 7 7 7 8 8 8 9 9 7 8 8 8 10 8 8 6 6 6 7 8 10 11 8 7 9 10 9 7 6 5 8 13 11 13 14 16 16 17 14 13 10 11 13 13 12 10 11 13 14 14 15 15 17 18 23 21 16 20 20 21 21 17 11 10 8 9 11 11 11 10 10 10 10 10 10 10 11 11 12 12 11 11 11 11
7 7 7 8 8 8 9 9 7 7 8 8 8 8 8 8 8 6 5 6 7 8 8 7 7 9 9 9 8 7 5 5 9 11 11 13 13 16 17 18 18 11 10 12 12 12 12 11 12 15 16 17 18 20 19 19 16 21 22 22 21 19 13 11 10 11 10 10 11 11 11 11 12 11 12 9 9 9 10 10 11 11 11 10 10
7 7 8 8 8 8 8 8 8 7 7 7 8 8 9 7 8 6 5 6 6 7 9 7 8 8 9 9 10 9 8 6 7 9 10 11 13 14 16 17 17 18 14 13 14 13 16 20 22 22 22 21 21 22 20 22 25 23 23 22 19 11 11 11 11 10 11 11 11 10 11 12 12 10 6 7 7 6 7 7 9 9 9 9 8
7 8 7 7 8 8 10 9 7 7 8 6 6 6 7 8 8 8 6 6 6 7 8 8 8 8 8 9 10 10 9 9 8 6 6 7 8 11 13 15 16 15 16 15 19 24 24 23 25 24 22 19 16 14 14 15 18 21 23 22 13 14 14 14 12 13 13 12 12 12 12 8 6 7 8 8 8 8 8 7 8 7 8 9 7
7 7 8 8 7 7 8 7 8 7 6 6 6 6 6 7 7 8 6 6 7 8 9 9 9 9 9 10 10 11 11 11 10 8 5 5 4 4 6 8 11 13 11 10 13 13 15 16 16 17 18 22 23 21 20 18 15 14 12 12 12 13 12 12 12 14 13 12 12 12 9 5 4 7 8 8 9 9 9 8 9 9 8 8 9
8 7 8 7 6 7 7 9 9 7 7 7 8 8 6 6 7 8 8 7 8 9 9 9 10 9 10 11 11 11 11 11 11 8 6 7 9 10 12 13 13 12 14 12 8 11 12 14 16 14 15 14 13 11 11 12 13 14 15 14 13 12 14 15 13 11 10 8 9 9 9 5 8 9 8 8 9 8 9 11 10 9 11 9 9
8 7 7 6 6 6 6 6 7 8 9 8 7 7 8 8 8 10 9 7 7 9 10 11 11 9 9 11 12 12 13 13 11 10 13 16 16 16 15 14 13 13 15 21 16 15 15 15 15 15 13 13 12 12 11 11 13 13 12 12 13 13 12 11 12 14 13 9 10 9 9 8 8 7 9 8 8 8 9 8 8 11 10 10 12
7 6 6 6 6 7 6 6 7 7 8 9 10 10 9 12 11 10 12 12 13 16 16 13 13 13 13 14 13 13 14 15 23 29 29 27 26 25 24 25 26 20 21 27 18 16 16 16 16 17 14 13 13 13 12 11 12 13 12 13 13 13 13 13 12 11 10 10 9 8 8 9 10 9 9 8 7 9 9 9 8 9 9 9 10
5 5 5 5 6 7 6 7 7 7 7 8 8 10 13 11 10 15 18 21 21 21 19 23 24 23 17 16 17 24 26 27 29 28 29 31 30 29 28 28 29 29 27 18 15 15 16 15 14 15 16 13 14 14 12 12 12 13 12 12 12 13 13 12 12 9 10 10 8 6 7 9 9 8 10 8 8 8 8 7 8 10 9 8 9
4 5 5 5 6 6 6 6 7 7 7 7 8 9 10 12 15 12 10 12 19 24 24 22 22 22 24 22 19 16 22 25 26 26 28 31 32 33 31 29 29 29 26 25 17 16 15 16 14 14 15 14 13 13 12 13 13 13 13 12 12 11 11 12 10 7 7 8 8 9 9 9 8 9 8 8 8 8 8 8 9 9 7 8 9
5 6 6 6 6 7 6 6 6 6 8 8 8 8 8 10 12 16 19 19 17 17 22 24 22 20 20 21 23 22 22 24 28 29 29 29 30 30 30 32 31 29 27 18 15 17 16 15 16 15 14 14 13 13 13 13 13 14 11 9 9 9 10 10 8 9 10 10 9 9 9 8 9 10 8 9 10 9 8 9 9 8 8 8 8
6 5 6 7 7 6 6 6 6 7 7 7 8 8 9 9 10 12 14 16 19 17 12 11 13 19 21 22 21 20 22 26 28 29 28 28 28 29 28 24 30 31 25 17 15 16 16 15 15 15 13 14 14 13 12 12 12 11 7 11 8 7 10 9 8 9 9 10 10 9 8 8 10 10 9 7 8 9 9 9 9 11 9 9 10
5 6 9 7 6 6 6 7 7 7 7 7 8 9 9 10 11 11 11 14 15 16 17 17 15 16 17 18 23 26 25 25 25 27 29 29 29 28 29 20 19 16 14 12 13 13 14 14 15 13 13 14 14 13 11 10 9 10 11 10 9 8 7 7 9 10 10 9 11 10 9 10 10 9 10 10 9 9 9 9 10 10 9 9 9
5 5 5 6 5 6 6 6 7 7 8 8 9 10 10 10 11 11 12 13 13 15 16 16 16 18 25 24 24 24 25 25 24 25 27 29 29 28 18 15 16 15 15 14 13 13 14 13 14 14 13 12 14 12 13 10 7 8 8 10 10 9 8 8 7 9 9 10 10 9 9 9 9 9 8 10 12 11 8 9 9 10 10 10 10
4 4 5 5 5 6 7 7 7 8 9 10 10 9 10 10 10 11 12 12 13 14 14 16 16 17 18 14 16 21 27 28 27 26 26 25 25 18 14 14 15 14 14 13 13 14 14 13 13 13 13 12 13 12 11 11 10 10 9 7 6 6 7 8 11 10 9 9 9 9 10 10 9 10 8 9 7 7 8 10 10 10 10 11 10
5 5 5 6 6 6 7 6 7 10 8 8 8 9 10 10 10 11 12 12 14 14 15 15 15 15 16 16 20 16 19 27 29 22 17 16 14 12 13 12 13 13 14 14 13 13 13 13 12 12 10 11 11 11 9 10 10 8 8 9 9 10 11 9 12 12 10 7 8 8 7 7 8 8 9 9 7 8 9 7 6 8 10 11 10
4 6 8 9 7 6 6 7 7 7 7 8 8 9 10 10 11 11 11 12 13 13 14 14 14 14 15 15 16 18 21 18 17 18 17 15 14 13 12 12 12 12 13 13 13 13 13 13 11 11 10 9 11 10 10 9 9 8 8 7 9 6 9 10 10 10 9 9 7 7 6 7 8 9 8 7 9 8 8 9 8 8 9 9 10
4 5 5 8 5 5 6 6 7 7 7 7 8 8 9 10 11 12 12 13 13 13 13 14 15 15 15 16 16 16 18 19 18 18 18 18 16 13 12 11 11 12 13 13 13 13 13 12 11 8 10 10 9 9 10 9 8 8 7 6 8 9 9 8 8 7 7 5 6 6 7 8 8 8 8 7 8 6 7 9 8 8 8 9 9
4 4 5 5 5 5 5 6 6 6 6 8 8 9 9 10 11 11 12 12 13 13 14 14 14 14 15 18 27 26 18 18 18 18 17 17 16 15 13 12 12 12 12 13 13 12 12 11 10 10 10 9 10 9 8 6 6 6 6 8 8 7 7 6 5 5 5 5 5 6 5 5 6 7 9 8 7 7 7 8 8 8 8 8 8
4 4 4 4 5 4 4 5 5 6 7 7 7 8 9 10 10 10 11 12 13 13 13 14 13 14 17 27 25 28 19 15 15 16 16 16 16 15 15 14 13 13 13 12 12 12 12 11 10 7 7 8 8 7 6 6 7 7 7 6 6 6 5 5 5 5 5 5 4 5 5 6 6 7 7 6 7 6 6 6 6 7 6 7 8
4 4 4 4 4 4 4 5 5 6 6 6 7 8 9 9 9 10 11 11 11 12 12 13 14 13 15 20 22 24 14 13 13 15 14 14 14 13 13 12 12 11 12 11 11 10 11 11 10 8 6 6 6 6 6 6 6 5 4 4 4 4 3 2 1 1 2 2 2 2 3 3 4 5 4 4 4 5 5 6 6 6 6 7 8
4 4 4 4 4 4 5 4 4 5 5 7 8 8 8 8 8 9 10 10 11 11 11 12 12 13 13 14 15 14 12 13 12 12 13 13 12 12 11 11 11 11 11 10 10 10 10 9 7 6 6 6 7 7 6 6 6 4 4 3 2 2 1 0 1 1 1 2 2 3 3 3 4 4 5 5 6 7 7 7 7 7 7 7 7
3 3 3 3 3 3 4 4 4 5 6 6 6 6 7 7 8 8 9 10 10 11 11 11 12 12 12 12 12 12 12 12 12 12 12 11 11 11 11 11 11 11 10 10 10 10 10 9 9 8 8 7 7 7 7 7 7 6 6 6 5 4 4 4 4 3 2 2 3 3 3 3 4 4 5 5 5 6 6 6 7 8 7 7 7
3 4 4 3 4 4 4 4 4 4 5 5 6 6 6 7 7 8 9 9 9 10 10 11 10 11 11 11 11 11 11 11 11 11 11 10 10 10 10 10 11 10 9 9 10 10 10 9 9 8 8 8 8 8 8 8 7 7 7 7 6 5 5 5 4 4 4 4 3 3 3 4 4 4 4 5 4 4 6 6 5 5 6 7 7
4 4 4 4 4 4 4 4 4 4 4 5 5 6 6 6 7 7 8 9 9 9 9 9 10 10 10 10 10 11 11 11 10 10 11 11 11 10 10 11 10 10 10 10 10 9 10 10 9 9 9 8 9 9 9 8 7 7 8 7 7 7 6 5 5 5 5 5 4 4 4 4 5 5 5 6 5 5 5 5 5 6 5 5 6
4 4 4 4 4 4 4 3 4 5 5 5 5 6 6 6 6 7 7 8 8 8 9 9 9 10 10 10 10 10 10 10 10 10 10 10 9 10 10 11 10 10 9 9 9 9 9 9 9 9 9 9 9 9 8 8 8 8 7 7 8 8 10 10 6 7 5 5 5 5 5 5 4 5 5 5 6 5 6 6 5 5 5 6 4
4 4 4 4 4 4 3 4 4 4 5 5 5 6 6 6 6 6 7 7 7 7 7 8 9 8 9 10 9 9 10 10 10 10 10 10 10 10 10 10 11 10 9 9 9 10 10 9 10 9 9 8 8 8 9 9 9 9 9 8 11 17 16 15 9 7 8 5 5 6 6 6 6 6 6 6 6 5 6 6 6 6 5 5 5
4 4 4 4 4 4 4 4 4 4 5 5 5 6 6 6 6 6 7 7 7 7 7 7 8 8 8 9 10 10 9 9 9 10 10 10 10 10 10 10 10 9 9 9 9 9 9 9 10 9 10 10 9 9 9 9 9 9 9 10 16 17 17 16 16 15 9 5 6 5 5 5 6 5 5 5 5 6 6 6 5 4 5 5 5
4 4 4 4 4 4 3 4 4 4 4 5 5 6 6 6 6 6 6 6 7 7 7 7 7 8 8 8 9 9 9 9 9 9 9 9 10 10 10 10 10 10 9 10 9 9 9 9 9 9 9 9 8 8 8 8 9 9 13 16 17 16 16 14 9 13 14 8 5 5 5 5 6 6 5 4 5 5 5 6 5 5 4 4 4
Wind_Direction
299 298 306 278 274 278 287 285 280 274 273 266 268 269 273 274 274 277 284 274 275 271 267 260 256 252 250 249 247 246 246 243 241 237 236 239 236 236 240 240 237 244 247 252 248 246 239 236 236 236 234 235 233 235 235 233 230 232 230 232 231 226 227 237 249 263 262 233 253 233 181 168 204 200 209 200 193 197 205 215 214 216 219 221 221
48 303 236 227 226 249 264 282 284 289 281 273 266 269 268 271 279 279 272 276 271 267 267 269 265 264 262 260 259 257 257 254 249 245 246 246 241 237 241 242 247 240 228 242 240 236 238 244 244 241 230 233 233 235 229 229 227 227 229 227 232 230 220 232 246 252 268 219 245 192 200 171 222 173 204 195 202 185 202 205 209 213 217 217 217
81 60 109 135 135 199 234 250 263 256 261 262 260 263 270 278 283 275 277 280 277 269 271 266 262 260 259 259 260 259 256 257 256 253 252 251 248 243 238 238 240 240 237 238 237 234 236 237 242 239 233 233 233 235 230 231 224 228 230 225 232 232 227 225 238 251 257 261 241 240 195 197 210 190 205 207 185 180 199 205 210 211 216 216 217
97 116 137 132 127 135 117 121 215 229 247 251 256 261 265 267 270 278 283 283 278 274 269 270 267 264 261 259 257 256 255 253 252 251 252 253 252 249 243 239 239 238 239 241 238 234 236 240 242 238 235 235 234 233 230 228 226 228 229 228 229 232 232 226 230 243 255 264 249 228 222 190 217 208 174 179 188 201 208 212 205 207 210 213 216
48 44 33 30 39 34 27 18 359 344 329 327 318 318 307 299 284 274 278 283 285 284 277 266 261 256 253 253 257 256 256 257 257 254 253 253 252 251 249 245 240 238 238 241 240 238 238 239 243 237 237 241 242 238 234 231 229 230 233 230 230 234 233 232 235 235 248 254 262 236 204 205 190 195 171 179 200 204 203 205 205 209 208 216 218
35 27 20 18 16 13 10 2 358 345 338 333 332 330 324 313 310 298 278 279 284 283 274 269 258 257 258 260 261 263 261 258 257 259 260 259 255 251 250 248 246 242 238 241 241 237 240 239 240 238 237 237 243 240 236 236 233 233 233 233 231 231 233 233 233 238 241 251 253 257 192 214 219 213 185 181 178 189 198 210 215 207 203 217 216
30 34 21 22 9 7 359 355 347 342 343 339 332 326 324 320 312 304 299 288 287 283 280 276 270 263 264 263 259 258 259 257 258 261 264 265 263 261 256 254 253 252 247 245 246 247 245 245 243 237 237 238 243 243 240 238 233 236 232 234 231 229 233 232 229 232 236 246 250 245 249 226 217 215 178 183 195 185 184 185 223 210 206 207 209
31 37 28 18 16 2 357 348 346 344 339 336 331 327 323 317 311 305 299 291 282 282 285 283 282 272 268 267 266 265 263 263 263 264 265 265 264 258 256 254 248 245 250 244 247 249 248 248 246 242 237 237 238 243 236 242 237 240 236 232 234 230 236 235 233 233 237 241 244 247 236 243 219 219 144 161 198 226 208 199 211 194 198 209 212
58 59 47 36 20 1 349 348 343 342 338 332 328 325 317 309 302 296 288 278 275 275 282 284 281 277 272 269 271 269 266 264 262 260 263 264 265 267 264 260 257 252 250 252 249 248 249 247 248 245 241 237 233 235 238 237 240 246 241 226 233 229 235 233 233 231 236 238 245 241 242 238 226 190 187 190 197 208 195 193 222 199 180 187 207
77 72 61 44 20 9 355 357 352 349 351 345 340 330 318 312 301 292 285 278 274 270 268 269 273 275 280 278 274 269 267 266 256 250 254 265 274 274 272 263 257 255 253 253 250 248 249 248 248 245 245 242 238 237 238 241 241 244 249 230 229 229 231 233 233 231 234 237 240 240 235 234 232 207 205 210 198 180 171 191 205 193 143 201 218
74 65 59 43 29 15 16 10 358 6 0 345 342 334 325 317 305 294 289 284 280 276 270 270 266 265 275 282 283 277 271 269 258 256 258 255 258 268 269 269 264 259 252 253 257 254 252 252 254 251 246 246 246 245 245 244 244 246 247 245 238 227 229 232 235 227 231 235 241 235 236 244 240 219 213 204 189 198 201 191 188 166 186 182 214
75 66 52 38 31 25 20 11 10 4 0 353 340 330 311 302 302 303 300 297 293 290 280 275 277 275 271 274 274 271 271 265 264 268 267 265 258 263 268 267 264 262 257 253 256 255 258 259 255 252 247 245 244 244 242 243 245 246 246 245 243 239 232 229 234 234 228 236 242 238 237 238 243 224 219 184 203 211 209 202 203 199 197 201 210
66 60 44 37 28 23 18 14 7 6 1 345 334 321 323 313 320 320 322 319 296 287 285 283 280 280 273 273 273 271 271 268 270 271 272 269 265 260 268 266 266 263 259 255 255 257 258 261 262 252 253 244 241 244 247 247 241 242 246 247 245 242 241 239 236 236 234 234 241 246 237 237 242 237 216 213 205 215 183 194 208 197 203 212 212
55 44 36 28 19 15 11 6 5 359 351 347 346 344 347 348 342 329 321 325 321 313 308 292 289 285 282 281 281 280 273 276 273 274 274 274 272 267 268 268 267 267 265 263 262 260 257 257 260 259 251 248 244 239 241 244 248 247 245 244 245 245 243 243 242 239 236 238 241 247 246 229 239 244 218 195 191 199 182 201 193 201 198 217 217
43 32 28 19 13 10 6 2 356 348 346 346 341 344 341 332 335 335 333 329 324 324 322 319 309 298 285 279 282 280 274 279 277 269 266 270 269 268 272 269 267 267 265 263 263 263 265 263 259 260 258 252 245 236 242 243 246 249 249 249 246 245 241 237 235 237 236 236 241 246 252 242 244 245 223 195 199 200 197 203 199 206 214 234 254
40 28 25 17 9 3 357 353 347 342 340 338 335 334 335 326 324 321 315 308 293 285 282 267 280 288 282 281 282 276 275 280 276 272 269 271 273 272 269 267 267 266 266 265 263 264 264 260 261 262 260 257 252 238 236 243 248 251 251 253 253 249 247 236 231 234 234 236 237 242 245 244 239 239 223 205 201 201 204 213 212 193 181 209 216
31 19 20 9 2 353 350 344 334 333 329 326 323 320 317 314 303 309 296 287 288 282 276 275 277 284 287 282 276 280 277 281 279 272 272 271 274 274 271 270 269 263 261 260 259 260 257 256 252 259 263 262 255 245 243 236 246 249 251 255 256 255 255 242 229 236 238 240 243 245 247 249 247 242 239 216 193 180 168 183 204 187 198 205 211
18 11 4 355 347 343 337 331 320 315 311 305 303 302 298 290 294 307 302 301 296 288 293 291 277 266 284 284 275 282 285 284 280 278 274 270 268 272 272 271 270 267 270 265 263 262 257 245 247 255 256 258 256 247 244 237 244 248 249 253 257 257 256 246 239 239 235 240 244 247 249 250 248 241 228 200 191 174 181 198 190 170 200 204 204
7 357 346 339 333 332 328 324 314 309 304 307 311 308 313 314 302 302 298 296 286 294 300 299 296 287 271 282 281 272 277 283 274 264 265 265 266 265 267 269 271 266 268 273 268 260 257 249 238 241 247 254 256 253 247 239 243 247 247 250 253 255 254 242 243 243 238 239 245 248 249 248 245 239 224 204 192 192 199 204 180 189 194 197 192
343 335 331 328 328 328 324 317 318 324 320 317 321 319 317 316 322 322 314 311 311 311 308 304 299 292 282 286 284 267 273 281 274 254 262 259 256 259 266 267 264 269 268 272 277 273 265 259 254 243 243 248 252 250 250 245 244 247 247 244 247 253 256 246 244 245 244 238 241 237 241 237 233 228 218 214 209 200 203 201 197 192 193 187 185
338 335 332 330 333 334 334 339 334 330 330 323 319 316 319 317 315 320 314 312 313 308 304 298 288 283 280 274 267 274 261 272 280 263 256 259 256 251 256 254 260 268 276 276 271 276 277 270 269 254 244 245 249 245 240 245 244 246 245 246 244 255 260 254 250 236 240 242 242 239 238 231 224 220 213 214 211 206 205 205 203 199 189 186 185
343 338 337 339 340 339 340 340 337 330 329 326 323 315 313 308 299 303 306 307 306 299 297 294 294 292 291 281 270 270 254 248 258 268 252 253 254 246 248 256 256 268 274 276 275 273 270 272 274 266 262 259 255 250 245 243 244 246 246 248 251 251 253 252 256 248 238 239 238 243 238 226 220 217 215 212 211 207 206 205 205 203 204 196 184
346 344 345 347 344 338 338 338 335 333 329 327 320 315 309 308 298 287 283 289 286 291 292 291 287 290 294 292 277 258 252 248 244 251 253 247 249 250 246 251 256 254 265 272 273 277 278 278 275 274 272 272 264 261 254 248 246 245 248 248 248 249 251 250 250 244 238 242 237 236 232 228 223 220 215 217 213 208 207 204 202 200 202 208 211
351 352 351 344 336 339 338 335 333 332 328 323 315 305 308 307 302 299 294 295 300 299 297 297 290 288 290 294 290 285 273 268 260 246 248 252 251 255 257 255 256 255 257 266 271 277 281 279 282 287 286 282 273 271 263 253 248 247 248 250 250 250 248 248 246 242 240 235 231 229 229 225 222 219 219 210 211 210 204 199 198 196 197 204 209
356 356 348 340 338 334 332 329 324 322 325 324 320 316 311 313 309 309 300 289 284 283 285 287 283 285 291 291 295 297 294 288 280 270 251 249 253 259 263 264 265 263 266 268 268 273 277 282 286 285 284 281 274 270 265 258 252 248 248 249 249 247 244 242 240 237 234 230 228 231 232 225 218 219 210 212 214 197 190 198 198 197 194 198 207
5 356 347 340 336 334 332 327 328 326 316 309 303 298 300 305 305 303 301 291 287 284 290 294 294 291 290 291 292 294 294 293 287 279 273 247 254 252 258 266 269 267 262 269 275 280 282 282 282 283 282 277 272 265 260 259 253 246 244 245 244 245 244 240 233 234 234 232 229 231 235 228 213 213 211 199 196 195 183 180 184 193 188 186 172
3 353 347 337 331 333 330 330 327 321 323 319 310 306 302 299 297 295 293 303 303 300 297 296 295 296 295 299 298 299 298 297 294 293 301 302 291 274 270 271 263 260 257 268 274 279 279 278 281 281 280 278 272 268 266 264 261 251 245 240 239 240 240 235 232 234 235 233 235 235 232 212 203 209 211 193 196 193 185 183 186 189 169 180 186
354 342 338 337 332 331 330 327 327 321 324 323 318 314 307 300 297 294 300 307 307 301 299 295 292 292 300 299 299 298 296 294 290 294 311 315 313 309 304 301 299 300 296 287 268 274 275 274 275 273 279 279 274 270 260 256 252 251 247 243 242 236 234 236 239 238 234 225 232 234 233 201 220 220 211 202 201 184 180 188 182 171 181 170 175
341 339 336 334 330 329 326 326 325 322 318 313 300 293 300 303 295 289 273 261 269 284 294 290 284 287 292 292 294 297 294 288 280 300 301 300 299 301 301 299 298 292 289 293 295 291 285 280 277 276 273 272 272 270 268 264 260 252 244 241 243 242 240 227 229 232 234 226 229 224 229 222 222 211 206 202 202 188 191 195 189 185 188 189 193
338 335 330 329 330 332 328 322 325 319 317 315 313 303 275 262 267 279 292 284 270 269 273 276 283 293 292 284 281 280 282 285 296 300 299 299 297 294 291 288 288 287 288 291 291 288 281 280 276 274 271 269 266 266 266 265 263 258 250 242 240 241 239 235 229 231 227 226 225 214 213 214 220 201 199 201 188 194 194 181 189 187 188 196 191
331 325 329 327 325 321 318 320 321 316 308 309 310 310 314 307 271 261 268 283 288 286 278 277 280 279 277 283 283 279 279 281 286 291 296 299 299 298 295 293 291 290 291 294 286 278 277 273 270 271 267 264 265 262 263 262 257 257 254 250 243 239 237 236 233 229 231 230 222 214 209 209 209 199 207 197 183 190 196 188 185 194 190 186 183
329 323 318 315 316 317 313 311 311 308 305 306 309 312 314 313 312 300 273 275 293 297 293 287 281 279 277 274 278 286 288 290 291 293 295 297 298 299 297 294 291 290 289 290 283 274 271 271 267 264 269 264 258 259 259 259 254 252 251 249 247 239 234 235 232 227 224 223 217 216 210 210 206 206 200 195 184 196 190 182 189 190 180 180 185
326 315 314 319 316 319 315 313 306 301 303 307 308 310 309 311 310 314 316 311 297 282 285 291 294 290 284 283 283 285 288 293 295 296 297 295 295 294 294 293 291 288 289 285 277 276 272 270 269 265 263 263 263 258 254 254 254 254 243 238 240 239 236 236 234 233 233 229 221 219 212 210 210 211 206 198 195 193 188 191 192 185 182 181 185
318 313 317 316 317 313 310 301 299 300 301 303 303 303 302 300 300 303 306 312 319 317 297 276 289 300 302 299 294 291 293 295 296 294 294 294 296 296 296 293 289 287 284 277 274 273 274 272 268 266 259 258 258 257 256 256 256 254 247 248 242 230 239 240 235 236 234 229 225 221 212 208 207 208 206 189 197 197 196 195 192 197 188 183 178
306 300 297 299 300 301 302 303 306 308 310 308 308 308 304 302 301 300 300 306 308 306 310 312 311 310 306 304 302 299 296 293 295 298 300 299 298 298 296 291 288 288 282 272 272 272 273 274 273 268 265 264 260 257 255 257 256 257 260 256 246 238 236 229 231 233 232 229 225 220 215 215 212 204 198 195 198 198 196 186 195 196 192 182 182
298 299 299 296 298 297 304 307 310 308 309 309 308 305 302 304 304 300 299 297 295 298 302 302 306 308 308 306 304 303 302 301 300 302 303 301 298 297 291 284 283 281 281 281 277 275 271 269 272 271 270 270 273 268 266 259 247 248 247 252 250 244 238 236 230 231 229 227 227 217 212 214 209 202 197 201 199 198 191 182 191 197 193 189 184
301 300 299 302 303 303 302 303 298 301 305 305 304 304 304 304 302 300 299 298 298 298 297 302 308 308 310 307 307 308 308 307 307 306 302 298 297 295 286 287 286 285 283 284 283 280 278 276 276 275 274 269 267 268 269 267 266 262 257 244 237 229 224 228 235 232 231 228 230 222 218 216 206 201 191 198 196 191 191 192 195 192 194 191 186
283 289 294 305 304 302 301 299 302 304 305 304 303 303 305 303 304 303 300 300 301 302 302 303 303 304 308 310 316 314 312 309 309 308 305 303 302 295 292 289 285 284 285 285 284 284 282 281 279 276 269 266 265 269 269 270 270 264 258 255 248 244 234 230 232 234 234 232 229 223 218 202 199 196 195 200 192 190 194 181 170 183 191 192 189
281 286 294 301 301 300 300 304 303 306 305 305 304 305 305 304 304 303 300 299 298 298 299 300 302 304 307 312 314 315 314 311 313 311 310 307 302 296 291 289 288 286 285 285 283 281 280 278 275 274 267 264 270 268 269 269 266 262 256 251 250 238 233 236 236 235 235 236 233 225 217 208 201 197 191 191 204 198 192 188 179 175 182 183 190
296 301 303 301 301 300 302 302 301 302 303 310 308 309 306 306 307 305 305 305 303 304 304 304 305 306 310 313 313 317 314 309 308 308 307 306 303 300 294 287 285 287 291 290 286 285 285 282 278 269 268 270 271 266 267 267 264 260 254 245 246 240 233 232 234 232 233 227 232 225 218 206 196 194 198 199 202 187 183 188 183 178 182 185 182
294 296 296 301 301 305 302 300 301 305 308 309 307 306 307 307 307 308 308 307 308 307 307 306 306 307 310 313 316 316 312 306 305 303 302 303 305 306 306 302 299 294 291 290 290 288 286 283 279 276 273 269 270 271 271 263 259 257 248 249 245 239 237 235 232 233 231 228 232 234 223 198 191 190 199 198 191 184 182 184 179 182 178 178 175
299 302 309 309 312 307 304 304 305 306 303 304 308 311 312 312 312 312 310 310 310 310 309 310 310 312 314 316 316 317 314 305 307 308 310 311 312 314 314 315 313 312 310 307 305 301 297 292 286 278 274 277 278 278 278 267 260 255 253 248 244 241 238 239 233 229 228 228 230 233 220 198 187 194 193 183 179 175 166 175 165 166 165 168 169
298 302 297 301 304 306 306 304 306 309 314 315 312 310 309 311 310 310 311 311 309 311 313 313 313 316 317 320 322 322 318 316 315 314 314 317 319 319 320 321 320 317 314 313 315 314 307 302 300 303 318 329 329 323 312 309 305 296 291 278 260 254 252 257 246 242 235 222 194 180 183 190 183 185 167 158 152 154 158 147 145 151 151 147 155
303 295 301 295 291 295 295 301 307 310 312 311 309 308 309 308 308 309 309 310 312 314 314 314 314 316 317 323 326 326 323 323 320 320 320 321 321 322 324 324 323 324 324 323 326 326 325 333 345 4 9 7 0 357 357 352 350 349 344 326 324 351 3 354 268 223 181 152 123 113 106 113 115 118 116 128 132 135 133 136 139 142 142 145 146
291 291 293 297 301 301 295 298 299 307 308 311 312 310 312 311 312 314 312 310 313 315 314 315 316 317 320 324 326 326 326 325 323 322 322 324 324 325 325 326 329 329 328 330 336 337 344 352 358 4 6 5 1 3 3 1 1 4 360 5 14 20 14 17 14 20 32 82 115 114 118 120 119 120 118 118 118 125 131 134 136 137 134 139 147
291 289 285 283 289 295 302 311 312 309 310 313 312 311 311 312 311 312 314 315 315 315 316 316 317 318 320 322 322 324 324 323 322 322 321 323 325 326 327 330 332 328 330 335 337 344 352 356 359 2 4 2 359 3 10 11 7 7 10 16 18 16 4 5 19 31 39 42 70 90 96 99 95 105 104 117 117 107 122 129 121 124 136 140 149
283 275 275 274 280 284 293 305 311 310 306 303 307 304 309 311 311 312 314 315 315 314 315 317 319 321 323 323 324 323 322 323 322 323 324 324 326 328 330 333 332 333 337 340 346 352 356 358 358 360 2 4 8 12 13 9 9 12 15 15 11 13 8 6 16 22 33 45 58 75 78 87 88 97 87 92 95 99 103 114 116 127 118 122 125
282 273 269 270 272 277 289 296 297 295 299 303 303 305 302 304 311 311 313 316 319 319 319 319 319 320 321 322 324 322 322 322 322 321 324 327 330 330 333 335 335 333 334 338 348 353 355 358 359 0 4 5 7 8 8 7 9 11 13 15 18 17 16 15 22 23 20 31 47 63 80 91 97 94 97 100 106 110 109 108 107 101 112 116 123
278 274 272 273 272 279 282 291 293 297 301 299 298 298 307 306 305 308 312 311 313 314 313 317 319 319 320 320 320 321 322 323 325 327 329 330 331 333 333 334 335 336 340 343 346 351 351 356 358 1 1 4 7 9 9 6 6 8 11 14 12 19 29 30 27 10 14 32 43 47 53 60 71 79 80 86 92 88 92 95 100 105 104 105 109
270 269 266 272 277 280 285 283 286 288 293 295 293 292 296 299 303 309 308 306 309 309 310 312 314 317 316 318 321 322 323 325 326 328 329 330 332 332 335 338 339 342 348 345 347 349 352 354 360 2 7 10 10 12 13 12 13 13 13 14 19 22 23 28 31 22 15 31 34 49 57 70 69 71 66 79 86 95 97 100 105 104 104 115 119
270 268 270 271 270 277 282 284 284 284 289 291 290 291 291 295 298 299 301 300 303 305 308 311 311 312 313 313 314 316 319 321 322 324 325 328 330 332 334 336 338 339 344 351 354 358 360 358 1 358 2 1 1 5 15 18 21 21 23 24 26 23 23 22 20 24 23 17 23 33 57 66 82 81 76 68 76 75 91 94 101 101 102 102 107